Location: Lecco
(45.8566°N, 9.3977°E)
Time: 20:31:11
(UTC+02:00)

Courier 1B Rocket - Pass Details

Date: 25 August 2019
Orbit: 920 x 1202 km, 28.2° (Epoch: 22 September)

Event Time Altitude Azimuth Distance (km) Brightness Sun altitude
Rises 03:18:00 0° 214° (SW) 3,826 - -27.8°
Reaches altitude 10° 03:22:15 10° 190° (S) 2,937 - -27.4°
Maximum altitude 03:25:39 14° 162° (SSE) 2,704 - -27.1°
Exits shadow 03:27:52 12° 143° (SE) 2,851 7.2 -26.9°
Drops below altitude 10° 03:29:08 10° 134° (SE) 3,032 7.5 -26.7°
Sets 03:33:40 0° 111° (ESE) 4,044 8.4 -26.3°
